Regional Weather Roundup
Issued by NWS Little Rock, AR

Home | Current Version | Previous Version | Text Only | Print | Product List | Glossary On
Versions: 1 2 3 4 5 6 7 8 9 10 11 12 13 14 15 16 17 18 19 20 21 22 23 24 25 26 27 28 29 30 31 32 33 34 35 36 37 38 39 40 41 42 43 44 45 46 47 48 49
000
ASUS44 KLZK 040005
RWRLZK

WEATHER ROUNDUP FOR ARKANSAS
NATIONAL WEATHER SERVICE LITTLE ROCK AR
700 PM CDT FRI JUL 03 2015

NOTE: "FAIR" INDICATES FEW OR NO CLOUDS BELOW 12,000 FEET WITH NO
SIGNIFICANT WEATHER AND/OR OBSTRUCTIONS TO VISIBILITY.

ARZ001-003-010-029-040100-
NORTHWEST ARKANSAS

CITY           SKY/WX    TMP DP  RH WIND       PRES   REMARKS
FAYETTEVILLE   TSTM      74  69  85 NE7       29.91R
6HR MIN TEMP:  74; 6HR MAX TEMP:  84; 6HR PCP:  0.01;

FORT SMITH     RAIN      72  66  81 NW22G46   29.89R
6HR MIN TEMP:  82; 6HR MAX TEMP:  89;

HARRISON       CLOUDY    75  71  87 CALM      29.91F
6HR MIN TEMP:  71; 6HR MAX TEMP:  85;

BENTONVILLE    MOSUNNY   75  66  73 NE7       29.91F
6HR MIN TEMP:  72; 6HR MAX TEMP:  86; 6HR PCP:  0.18;

ROGERS         PTSUNNY   75  69  81 E6        29.92S
6HR MIN TEMP:  70; 6HR MAX TEMP:  84; 6HR PCP:  0.30;

SILOAM SPGS    MOSUNNY   73  66  78 E3          N/A
6HR MIN TEMP:  72; 6HR MAX TEMP:  84; 6HR PCP:  0.44;

HIGHFILL       MOSUNNY   75  70  84 NE5       29.91R
6HR MIN TEMP:  71; 6HR MAX TEMP:  87; 6HR PCP:  0.62;

$$

ARZ004-005-016-040100-
NORTH CENTRAL ARKANSAS

CITY           SKY/WX    TMP DP  RH WIND       PRES   REMARKS
BATESVILLE     CLOUDY    72  70  94 W7        29.85F
6HR MIN TEMP:  72; 6HR MAX TEMP:  79; 6HR PCP:  0.08;

FLIPPIN        CLOUDY    72  66  83 S3        29.88R
6HR MIN TEMP:  72; 6HR MAX TEMP:  84; 6HR PCP:  0.24;

MTN HOME       CLOUDY    70  68  93 S3        29.88S
6HR MIN TEMP:  70; 6HR MAX TEMP:  85; 6HR PCP:  0.63;

$$

ARZ040-041-040100-
WEST CENTRAL ARKANSAS

CITY           SKY/WX    TMP DP  RH WIND       PRES   REMARKS
MENA           SUNNY     82  73  74 SW5       29.90F HX  88
MOUNT IDA      SUNNY     83  73  72 VRB5      29.87F HX  89
6HR MIN TEMP:  74; 6HR MAX TEMP:  83; 6HR PCP:  0.36;

$$

ARZ009-017-025-026-028-040100-
NORTHEAST ARKANSAS

CITY           SKY/WX    TMP DP  RH WIND       PRES   REMARKS
JONESBORO      CLOUDY    74  73  97 SW5       29.84F
6HR MIN TEMP:  73; 6HR MAX TEMP:  78; 6HR PCP:  0.26;

NEWPORT        CLOUDY    73  69  87 W5        29.85S
6HR MIN TEMP:  73; 6HR MAX TEMP:  79; 6HR PCP:  0.07;

WALNUT RIDGE   PTSUNNY   75  70  83 SW7       29.85S
6HR MIN TEMP:  72; 6HR MAX TEMP:  77; 6HR PCP:  0.10;

BLYTHEVILLE    PTSUNNY   77  73  87 VRB3      29.87S
6HR MIN TEMP:  72; 6HR MAX TEMP:  80; 6HR PCP:  0.26;

$$

ARZ022-023-033-042-044-040100-
CENTRAL ARKANSAS

CITY           SKY/WX    TMP DP  RH WIND       PRES   REMARKS
LITTLE ROCK    CLOUDY    77  71  82 SW9       29.88F
6HR MIN TEMP:  72; 6HR MAX TEMP:  79; 6HR PCP:  0.40;

N LITTLE ROCK  CLOUDY    76  73  90 SW9       29.88F
6HR MIN TEMP:  71; 6HR MAX TEMP:  76;

JACKSONVILLE   SUNNY     78  71  79 SW12      29.88S
6HR MIN TEMP:  73; 6HR MAX TEMP:  79; 6HR PCP:  0.06;

SEARCY         MOSUNNY   79  72  79 VRB7      29.89S
6HR MIN TEMP:  74; 6HR MAX TEMP:  82; 6HR PCP: TRACE;

HOT SPRINGS    MOSUNNY   82  75  79 S7        29.88F HX  89
6HR MIN TEMP:  71; 6HR MAX TEMP:  82; 6HR PCP:  0.28;

RUSSELLVILLE   MOSUNNY   82  75  79 S5        29.84F HX  89
6HR MIN TEMP:  74; 6HR MAX TEMP:  84; 6HR PCP: TRACE;

CLINTON        FAIR      70  68  94 CALM      29.91R
$$

ARZ036-040100-
EAST ARKANSAS

CITY           SKY/WX    TMP DP  RH WIND       PRES   REMARKS
WEST MEMPHIS   CLOUDY    77  75  93 S13G20    29.86F
6HR MIN TEMP:  71; 6HR MAX TEMP:  77; 6HR PCP:  0.10;

$$

ARZ050-053-066-070-073-040100-
SOUTHWEST ARKANSAS

CITY           SKY/WX    TMP DP  RH WIND       PRES   REMARKS
ARKADELPHIA    FAIR      84  77  80 SW10      29.89F HX  93
6HR MIN TEMP:  74; 6HR MAX TEMP:  85; 6HR PCP:  0.64;

CAMDEN         PTSUNNY   81  75  83 MISG      29.91F HX  86
TEXARKANA      PTSUNNY   81  77  88 S8        29.92F HX  88
6HR MIN TEMP:  77; 6HR MAX TEMP:  82; 6HR PCP:  0.09;

EL DORADO      CLOUDY    81  76  84 S5        29.93F HX  87
6HR MIN TEMP:  79; 6HR MAX TEMP:  85; 6HR PCP: TRACE;

DE QUEEN       MOSUNNY   84  74  71 SW8       29.88S HX  91
6HR MIN TEMP:  78; 6HR MAX TEMP:  86; 6HR PCP:  0.01;

$$

ARZ056-057-069-040100-
SOUTHEAST ARKANSAS

CITY           SKY/WX    TMP DP  RH WIND       PRES   REMARKS
PINE BLUFF     PTSUNNY   75  72  90 S6        29.90F
6HR MIN TEMP:  73; 6HR MAX TEMP:  77; 6HR PCP:  0.65;

STUTTGART      PTSUNNY   75  72  88 SW13      29.88F
6HR MIN TEMP:  73; 6HR MAX TEMP:  79; 6HR PCP:  0.23;

MONTICELLO     CLOUDY    75  75 100 S3        29.92F
6HR MIN TEMP:  73; 6HR MAX TEMP:  85; 6HR PCP:  0.11;


$$





USA.gov is the U.S. government's official web portal to all federal, state and local government web resources and services.